Change the Weather History Date:

Thursday, June 20, 2013

  Actual Average Record
Temperature  
Mean Temperature 80 °F -  
Max Temperature 86 °F 87 °F 95 °F (2005)
Min Temperature 73 °F 73 °F 71 °F (1999)
Cooling Degree Days 14    
Growing Degree Days 30 (Base 50)    
Moisture  
Dew Point 74 °F    
Average Humidity 91    
Maximum Humidity 100    
Minimum Humidity 70    
Precipitation  
Precipitation 0.00 in - - ()
Sea Level Pressure  
Sea Level Pressure 30.05 in    
Wind  
Wind Speed 1 mph (South)    
Max Wind Speed 18 mph    
Max Gust Speed 36 mph    
Visibility 8 miles    
Events Rain , Thunderstorm    
Averages and records for this station are not official NWS values.
T = Trace of Precipitation, MM = Missing Value Source: NWS Daily Summary

Daily Weather History Graph

Daily Weather History Graph

Search for Another Location

Airport or City:

Trip Planner

Search our weather history database for the weather conditions in past years. The results will help you decide how hot, cold, wet, or windy it might be!

Date:

Astronomy

Jun. 20, 2013 Rise Set
Actual Time 6:11 AM CDT 8:17 PM CDT
Civil Twilight 5:43 AM CDT 8:44 PM CDT
Nautical Twilight 5:10 AM CDT 9:18 PM CDT
Astronomical Twilight 4:34 AM CDT 9:54 PM CDT
Moon 5:26 PM CDT (6/20) 3:29 AM CDT (6/20)
Length of Visible Light 15h 00m
Length of Day
14h 05m
Waxing Gibbous, 89% of the Moon is Illuminated
Jun 20
Waxing Gibbous
Jun 23
Full
Jun 29
Last Quarter
Jul 8
New
Jul 15
First Quarter

Hourly Weather History & Observations

Time (CDT) Temp. Heat Index Dew Point Humidity Pressure Visibility Wind Dir Wind Speed Gust Speed Precip Events Conditions
12:15 AM 76.3 °F - 73.8 °F 92% 30.02 in 10.0 mi Calm Calm - N/A   Clear
12:35 AM 76.1 °F - 73.6 °F 92% 30.02 in 10.0 mi Calm Calm - N/A   Clear
12:55 AM 75.6 °F - 73.6 °F 94% 30.03 in 10.0 mi Calm Calm - N/A   Clear
1:15 AM 75.7 °F - 73.4 °F 92% 30.03 in 10.0 mi Calm Calm - N/A   Clear
1:35 AM 75.6 °F - 73.6 °F 94% 30.02 in 10.0 mi Calm Calm - N/A   Clear
1:55 AM 75.0 °F - 73.2 °F 94% 30.02 in 7.0 mi Calm Calm - N/A   Clear
2:15 AM 75.2 °F - 73.4 °F 94% 30.02 in 7.0 mi Calm Calm - N/A   Scattered Clouds
2:35 AM 75.0 °F - 73.2 °F 94% 30.02 in 10.0 mi Calm Calm - N/A   Clear
2:55 AM 74.5 °F - 72.7 °F 94% 30.01 in 7.0 mi Calm Calm - N/A   Clear
3:15 AM 74.7 °F - 73.0 °F 95% 30.01 in 7.0 mi Calm Calm - N/A   Clear
3:35 AM 74.5 °F - 72.9 °F 95% 30.01 in 5.0 mi Calm Calm - N/A   Clear
3:55 AM 74.3 °F - 72.9 °F 95% 30.01 in 4.0 mi Calm Calm - N/A   Clear
4:15 AM 74.5 °F - 73.0 °F 95% 30.02 in 7.0 mi Calm Calm - N/A   Clear
4:35 AM 74.3 °F - 72.7 °F 95% 30.01 in 5.0 mi Calm Calm - N/A   Scattered Clouds
4:55 AM 74.5 °F - 73.0 °F 95% 30.01 in 5.0 mi Calm Calm - N/A   Scattered Clouds
5:15 AM 74.1 °F - 72.7 °F 95% 30.02 in 3.0 mi Calm Calm - N/A   Unknown
5:35 AM 74.3 °F - 72.9 °F 95% 30.02 in 5.0 mi Calm Calm - N/A   Clear
5:55 AM 74.3 °F - 72.9 °F 95% 30.02 in 5.0 mi Calm Calm - N/A   Clear
6:00 AM 73.4 °F - 73.4 °F 100% 30.02 in 6.0 mi Calm Calm - N/A   Clear
6:15 AM 74.5 °F - 73.0 °F 95% 30.03 in 3.0 mi Calm Calm - N/A   Unknown
6:35 AM 74.8 °F - 73.4 °F 95% 30.04 in 4.0 mi Calm Calm - N/A   Clear
6:50 AM 75.2 °F - 73.4 °F 94% 30.05 in 10.0 mi Calm Calm - N/A   Scattered Clouds
6:55 AM 75.2 °F - 73.6 °F 95% 30.05 in 5.0 mi Calm Calm - N/A   Clear
7:50 AM 78.8 °F - 75.2 °F 89% 30.07 in 10.0 mi Calm Calm - N/A   Scattered Clouds
8:50 AM 82.4 °F 89.5 °F 75.2 °F 79% 30.09 in 10.0 mi Calm Calm - N/A   Mostly Cloudy
9:50 AM 86.0 °F 95.1 °F 75.2 °F 70% 30.10 in 10.0 mi South 6.9 mph - N/A   Mostly Cloudy
10:50 AM - - - N/A% 30.10 in 10.0 mi WSW 4.6 mph - N/A   Mostly Cloudy
11:58 AM - - - N/A% 30.09 in 10.0 mi Calm Calm - N/A   Mostly Cloudy
12:50 PM - - - N/A% 30.09 in 10.0 mi Calm Calm - N/A   Mostly Cloudy
1:50 PM - - - N/A% 30.06 in 10.0 mi Variable 6.9 mph - N/A   Mostly Cloudy
2:50 PM - - - N/A% 30.06 in 10.0 mi SE 11.5 mph - N/A   Mostly Cloudy
3:16 PM 80.6 °F 85.4 °F 73.4 °F 79% 30.08 in 3.0 mi SE 13.8 mph 23.0 mph N/A Rain , Thunderstorm Thunderstorms and Rain
3:32 PM 75.2 °F - 69.8 °F 83% 30.10 in 1.0 mi South 18.4 mph 35.7 mph N/A Rain , Thunderstorm Thunderstorms and Rain
3:50 PM 75.2 °F - 69.8 °F 83% 30.09 in 4.0 mi South 9.2 mph 19.6 mph N/A Rain , Thunderstorm Thunderstorms and Rain
4:45 PM 80.6 °F 86.2 °F 75.2 °F 84% 30.07 in 10.0 mi Variable 4.6 mph - N/A   Scattered Clouds
5:53 PM 80.6 °F 85.4 °F 73.4 °F 79% 30.06 in 10.0 mi Calm Calm - N/A   Clear
6:55 PM 80.6 °F 85.4 °F 73.4 °F 79% 30.06 in 10.0 mi Calm Calm - N/A   Clear
7:55 PM 80.6 °F 86.2 °F 75.2 °F 84% 30.05 in 10.0 mi Calm Calm - N/A   Clear
8:55 PM 78.8 °F - 75.2 °F 89% 30.06 in 10.0 mi Calm Calm - N/A   Clear
9:45 PM 77.0 °F - 75.2 °F 94% 30.07 in 10.0 mi Calm Calm - N/A   Clear
11:15 PM 77.2 °F - 75.2 °F 94% 30.08 in 10.0 mi Calm Calm - N/A   Clear
11:35 PM 77.0 °F - 75.0 °F 94% 30.07 in 10.0 mi Calm Calm - N/A   Clear
11:55 PM 76.8 °F - 74.3 °F 92% 30.07 in 10.0 mi Calm Calm - N/A   Clear